Flag for Indonesia Weather past 2 weeks in Makassar, South Sulawesi, Indonesia

Now
72 °F

Passing clouds.


Feels Like: 76 °F
Forecast: 74 / 91 °F
Wind: 3 mph from Southeast

Location: Ujung Pandang / Hasanuddin

Current Time: Oct 1, 2014 at 12:54:01 AM

Latest Report: Oct 1, 2014 at 12:30 AM


Visibility: 6 mi

Pressure: 29.83 "Hg

Humidity: 61%

Dew point: 57 °F

Location of MakassarLocation

Historic Weather in Makassar — Graph

°F

Makassar temperature yesterday

Maximum temperature yesterday: 93 °F (at 10:30 AM)
Minimum temperature yesterday: 66 °F (at 6:00 AM)
Average temperature yesterday: 82 °F

Past Weeks' High & Low Weather Summary

 TemperatureHumidityPressure
High99 °F (Sep 19, 12:00 PM)100% (Sep 27, 6:00 AM)29.95 "Hg (Sep 27, 6:00 AM)
Low63 °F (Sep 24, 5:00 AM)22% (Sep 19, 3:00 PM)29.71 "Hg (Sep 16, 3:00 PM)
Average82 °F58%29.85 "Hg
* Reported Sep 15 11:00 PM — Sep 30 11:30 PM, Makassar, Weather by CustomWeather, © 2014

Note: Actual official high and low records may vary slightly from our data, if they occured in-between our weather recording intervals... More about our weather records

Advertising

Makassar weather history for previous 24 hours

 ConditionsComfort  
Time TempWeatherWind HumidityBarometerVisibility
11:30 PM
Sep 30
77 °FPassing clouds.2 mph44%29.83 "Hg6 mi
11:00 PM77 °FPassing clouds.5 mph47%29.83 "Hg6 mi
10:30 PM77 °FPassing clouds.5 mph47%29.86 "Hg6 mi
10:00 PM79 °FPassing clouds.3 mph45%29.86 "Hg6 mi
9:30 PM79 °FPassing clouds.5 mph48%29.86 "Hg6 mi
9:00 PM79 °FPassing clouds.6 mph58%29.86 "Hg6 mi
8:30 PM81 °FPassing clouds.5 mph48%29.83 "Hg6 mi
8:00 PM81 °FPassing clouds.5 mph54%29.83 "HgN/A
7:30 PM81 °FPassing clouds.3 mph62%29.83 "HgN/A
7:00 PM82 °FPassing clouds.5 mph62%29.83 "HgN/A
6:30 PM86 °FPassing clouds.5 mph59%29.80 "HgN/A
6:00 PM86 °FPassing clouds.3 mph59%29.80 "HgN/A
5:30 PM88 °FPassing clouds.7 mph52%29.80 "HgN/A
5:00 PM90 °FPassing clouds.9 mph46%29.77 "HgN/A
4:30 PM90 °FPassing clouds.9 mph52%29.77 "HgN/A
4:00 PM90 °FPassing clouds.13 mph49%29.77 "HgN/A
3:30 PM91 °FPassing clouds.12 mph52%29.77 "HgN/A
3:00 PM91 °FPassing clouds.13 mph49%29.77 "HgN/A
2:30 PM91 °FPassing clouds.13 mph44%29.77 "HgN/A
2:00 PM93 °FPassing clouds.15 mph34%29.80 "HgN/A
1:30 PM93 °FPassing clouds.13 mph34%29.80 "HgN/A
1:00 PM93 °FPassing clouds.13 mph32%29.80 "HgN/A
12:30 PM93 °FPassing clouds.14 mph36%29.80 "HgN/A
12:00 PM93 °FPassing clouds.13 mph34%29.83 "HgN/A
11:30 AM93 °FPassing clouds.9 mph34%29.83 "HgN/A
11:00 AM93 °FPassing clouds.9 mph32%29.86 "HgN/A
10:30 AM93 °FPassing clouds.7 mph34%29.86 "HgN/A
10:00 AM91 °FPassing clouds.3 mph34%29.89 "HgN/A
9:30 AM90 °FPassing clouds.3 mph38%29.89 "HgN/A
9:00 AM90 °FPassing clouds.3 mph36%29.89 "Hg6 mi
8:30 AM86 °FPassing clouds.3 mph43%29.89 "Hg6 mi
8:00 AM84 °FPassing clouds.1 mph45%29.89 "Hg6 mi
7:30 AM79 °FPassing clouds.1 mph54%29.89 "HgN/A
7:00 AM73 °FPassing clouds.2 mph69%29.89 "HgN/A
6:30 AM68 °FPassing clouds.2 mph78%29.86 "HgN/A
6:00 AM66 °FPassing clouds.3 mph78%29.86 "HgN/A
5:30 AM68 °FPassing clouds.5 mph73%29.86 "Hg5 mi
5:00 AM70 °FPassing clouds.7 mph69%29.83 "Hg5 mi
4:30 AM72 °FPassing clouds.7 mph65%29.83 "Hg5 mi
4:00 AM68 °FPassing clouds.5 mph78%29.83 "Hg5 mi
3:30 AM68 °FPassing clouds.5 mph73%29.83 "Hg5 mi
3:00 AM70 °FPassing clouds.3 mph73%29.83 "Hg5 mi
2:30 AM70 °FPassing clouds.3 mph73%29.83 "Hg5 mi
2:00 AM72 °FPassing clouds.2 mph69%29.83 "Hg5 mi
1:30 AM70 °FPassing clouds.2 mph73%29.83 "Hg5 mi
1:00 AM72 °FPassing clouds.1 mph65%29.83 "Hg5 mi
12:30 AM73 °FPassing clouds.1 mph61%29.83 "Hg5 mi
12:00 AM75 °FPassing clouds.No wind61%29.83 "Hg5 mi
Weather by CustomWeather, © 2014

See weather overviewHow to use our weather pages